Location: Apeadero de Los Molinos-Guadarrama
(40.7091°N, 4.0689°W)
Time: 09:15:20
(UTC+00:00)

Cosmos 1900 - Pass Details

Date: 14 May 2021
Orbit: 689 x 733 km, 66.1° (Epoch: 20 June)

Event Time Altitude Azimuth Distance (km) Brightness Sun altitude
Exits shadow 22:03:43 29° 218° (SW) 1,311 5.5 -23.3°
Maximum altitude 22:06:19 78° 301° (WNW) 745 4.4 -23.6°
Drops below altitude 10° 22:11:23 10° 28° (NNE) 2,213 7.2 -24.1°
Sets 22:13:45 0° 30° (NNE) 3,131 8.1 -24.3°
